Flag for Canada Weather past 2 weeks in Langley, British Columbia, Canada

Now
62 °F

Cool.


Feels Like: 62 °F
Forecast: 58 / 66 °F
Wind: 6 mph from East

Location: P. Meadows Coastal Station

Current Time: Sep 23, 2014 at 8:30:45 PM

Latest Report: Sep 23, 2014 at 7:00 PM


Visibility: N/A

Pressure: 29.77 "Hg

Humidity: 91%

Dew point: 59 °F

Location of LangleyLocation

Historic Weather in Langley — Graph

°F

Langley temperature yesterday

Maximum temperature yesterday: 70 °F (at 4:00 PM)
Minimum temperature yesterday: 59 °F (at 3:00 AM)
Average temperature yesterday: 63 °F

Past Weeks' High & Low Weather Summary

 TemperatureHumidityPressure
High87 °F (Sep 15, 4:00 PM)100% (Sep 15, 7:00 AM)30.34 "Hg (Sep 15, 7:00 AM)
Low43 °F (Sep 12, 7:00 AM)17% (Sep 10, 5:00 PM)29.70 "Hg (Sep 17, 7:00 PM)
Average62 °F72%29.96 "Hg
* Reported Sep 8 7:00 PM — Sep 23 7:00 PM, Langley, Weather by CustomWeather, © 2014

Note: Actual official high and low records may vary slightly from our data, if they occured in-between our weather recording intervals... More about our weather records

Advertising

Langley weather history for previous 24 hours

 ConditionsComfort  
Time TempWeatherWind HumidityBarometerVisibility
7:00 PM
Sep 23
62 °FCool.6 mph91%29.77 "HgN/A
6:00 PM62 °FMild.2 mph92%29.77 "HgN/A
5:00 PM62 °FMild.8 mph91%29.77 "HgN/A
4:00 PM63 °FMild.7 mph88%29.79 "HgN/A
3:00 PM62 °FCool.3 mph98%29.79 "HgN/A
2:00 PM64 °FMild.3 mph89%29.79 "HgN/A
1:00 PM63 °FMild.6 mph89%29.81 "HgN/A
12:00 PM64 °FMild.1 mph82%29.82 "HgN/A
11:00 AM63 °FMild.2 mph86%29.81 "HgN/A
10:00 AM63 °FMild.3 mph80%29.80 "HgN/A
9:00 AM60 °FCool.1 mph89%29.83 "HgN/A
8:00 AM56 °FCool.1 mph97%29.83 "HgN/A
7:00 AM53 °FCool.1 mph97%29.84 "HgN/A
6:00 AM54 °FCool.1 mph97%29.84 "HgN/A
5:00 AM55 °FCool.1 mph97%29.86 "HgN/A
4:00 AM55 °FCool.No wind98%29.88 "HgN/A
3:00 AM56 °FCool.No wind90%29.89 "HgN/A
2:00 AM57 °FCool.No wind97%29.90 "HgN/A
1:00 AM58 °FCool.No wind94%29.90 "HgN/A
12:00 AM58 °FCool.1 mph94%29.90 "HgN/A
11:00 PM
Sep 22
59 °FCool.1 mph92%29.91 "HgN/A
10:00 PM60 °FCool.2 mph89%29.93 "HgN/A
9:00 PM61 °FCool.1 mph87%29.93 "HgN/A
8:00 PM63 °FMild.1 mph83%29.94 "HgN/A
Weather by CustomWeather, © 2014

See weather overviewHow to use our weather pages